McChord Air Force Base Tacoma US
ICAO: KTCM
IATA: TCM
Category: Large
Scheduled Services: No

Elevation: 322 ft
TransAlt. 18000 ft.

Airport Communications:
SEATTLE APP/DEP:126.5
ATIS:27.01
GND:125.15
PMSV METRO:34.25
COMD POST:34.94
PTD:37.22
TWR:124.8

KTCM Zoom In..

Runways:

(A) RW 16 length 10108 ft width 150 ft
ILS 109.90 / hdg 160

(B) RW 34 length 10108 ft width 150 ft
ILS 108.50 / hdg 340

Location; KTCM
Day. 30 / Time. 21.58 Zulu
* Altimeter: 30.25
* Temperature: 10° c. 50°f.
* Wind from: KTC° Speed M kn.
Dewpoint: 03° c.
Visibility: 10 Statute Miles.
Clouds: Clear (automated report).

KTCM 302158Z AUTO 23013G21KT 10SM CLR 10/03 A3025 RMK AO2 SLP249 T00960029 $

Going to: --> -->


Wind From KTC°
Speed M kn.

 
 
jpsmedia worldairports.se 2020   terms of use